H1 CPF 2 NER 2025 9 24 13 267 01 glonass132 H2 1401201 9132 39620 2025 9 24 0 0 0 2025 9 27 23 45 0 900 1 1 0 0 0 1 H9 10 0 60942 0.00000 0 -14616466.334 18336136.742 10104287.969 10 0 60942 900.00000 0 -15281981.971 19180043.616 7104417.114 10 0 60942 1800.00000 0 -15620576.756 19800415.023 3966919.022 10 0 60942 2700.00000 0 -15659778.810 20146632.978 752556.749 10 0 60942 3600.00000 0 -15437722.983 20176515.804 -2476389.021 10 0 60942 4500.00000 0 -15001345.926 19858237.015 -5657319.533 10 0 60942 5400.00000 0 -14404223.215 19171829.006 -8728526.462 10 0 60942 6300.00000 0 -13704139.217 18110207.181 -11630386.203 10 0 60942 7200.00000 0 -12960491.808 16679669.949 -14306516.832 10 0 60942 8100.00000 0 -12231641.157 14899851.716 -16704875.202 10 0 60942 9000.00000 0 -11572314.401 12803128.789 -18778772.688 10 0 60942 9900.00000 0 -11031175.932 10433500.955 -20487789.453 10 0 60942 10800.00000 0 -10648666.269 7844993.495 -21798569.100 10 0 60942 11700.00000 0 -10455201.424 5099644.517 -22685477.735 10 0 60942 12600.00000 0 -10469809.650 2265160.092 -23131114.016 10 0 60942 13500.00000 0 -10699264.200 -587666.271 -23126659.607 10 0 60942 14400.00000 0 -11137749.873 -3387663.133 -22672062.447 10 0 60942 15300.00000 0 -11767078.627 -6066007.168 -21776048.470 10 0 60942 16200.00000 0 -12557446.263 -8558852.360 -20455960.720 10 0 60942 17100.00000 0 -13468699.164 -10809752.711 -18737428.222 10 0 60942 18000.00000 0 -14452058.183 -12771777.172 -16653870.398 10 0 60942 18900.00000 0 -15452227.129 -14409228.341 -14245846.256 10 0 60942 19800.00000 0 -16409796.556 -15698893.035 -11560260.815 10 0 60942 20700.00000 0 -17263840.667 -16630772.601 -8649444.450 10 0 60942 21600.00000 0 -17954596.597 -17208262.942 -5570123.601 10 0 60942 22500.00000 0 -18426111.596 -17447777.779 -2382303.775 10 0 60942 23400.00000 0 -18628744.889 -17377832.413 851912.204 10 0 60942 24300.00000 0 -18521417.219 -17037628.417 4069546.322 10 0 60942 25200.00000 0 -18073511.967 -16475200.994 7207982.715 10 0 60942 26100.00000 0 -17266346.880 -15745209.270 10206194.778 10 0 60942 27000.00000 0 -16094153.941 -14906464.836 13005937.123 10 0 60942 27900.00000 0 -14564526.136 -14019304.515 15552878.568 10 0 60942 28800.00000 0 -12698312.636 -13142919.506 17797653.854 10 0 60942 29700.00000 0 -10528967.299 -12332754.204 19696813.980 10 0 60942 30600.00000 0 -8101378.296 -11638084.353 21213657.470 10 0 60942 31500.00000 0 -5470228.261 -11099876.020 22318927.562 10 0 60942 32400.00000 0 -2697953.509 -10749014.396 22991363.263 10 0 60942 33300.00000 0 147612.877 -10604975.562 23218095.137 10 0 60942 34200.00000 0 2995816.722 -10674995.477 22994879.681 10 0 60942 35100.00000 0 5775871.325 -10953769.660 22326169.087 10 0 60942 36000.00000 0 8419548.858 -11423694.951 21225016.048 10 0 60942 36900.00000 0 10863764.706 -12055642.395 19712816.096 10 0 60942 37800.00000 0 13052949.531 -12810228.457 17818892.639 10 0 60942 38700.00000 0 14941112.605 -13639531.320 15579932.472 10 0 60942 39600.00000 0 16493512.562 -14489180.735 13039282.116 10 0 60942 40500.00000 0 17687867.712 -15300734.441 10246117.734 10 0 60942 41400.00000 0 18515056.847 -16014242.263 7254503.611 10 0 60942 42300.00000 0 18979282.206 -16570890.993 4122356.382 10 0 60942 43200.00000 0 19097688.382 -16915619.540 910334.000 10 0 60942 44100.00000 0 18899453.279 -16999594.733 -2319329.970 10 0 60942 45000.00000 0 18424389.187 -16782443.539 -5504024.834 10 0 60942 45900.00000 0 17721112.369 -16234147.267 -8581971.317 10 0 60942 46800.00000 0 16844857.694 -15336517.040 -11493417.062 10 0 60942 47700.00000 0 15855029.821 -14084187.048 -14181795.942 10 0 60942 48600.00000 0 14812593.643 -12485081.983 -16594828.598 10 0 60942 49500.00000 0 13777413.660 -10560336.911 -18685542.681 10 0 60942 50400.00000 0 12805654.335 -8343670.682 -20413192.558 10 0 60942 51300.00000 0 11947351.097 -5880236.823 -21744060.258 10 0 60942 52200.00000 0 11244254.724 -3224997.789 -22652121.539 10 0 60942 53100.00000 0 10728040.517 -440688.581 -23119563.542 10 0 60942 54000.00000 0 10418958.462 2404546.903 -23137143.276 10 0 60942 54900.00000 0 10324982.084 5239749.442 -22704379.212 10 0 60942 55800.00000 0 10441492.781 7993860.655 -21829571.438 10 0 60942 56700.00000 0 10751513.719 10598448.954 -20529649.158 10 0 60942 57600.00000 0 11226484.105 12990331.713 -18829847.729 10 0 60942 58500.00000 0 11827541.532 15113984.077 -16763220.856 10 0 60942 59400.00000 0 12507258.335 16923633.524 -14369997.008 10 0 60942 60300.00000 0 13211758.297 18384952.408 -11696792.388 10 0 60942 61200.00000 0 13883123.509 19476277.505 -8795695.989 10 0 60942 62100.00000 0 14461988.565 20189305.729 -5723245.074 10 0 60942 63000.00000 0 14890211.042 20529237.404 -2539311.896 10 0 60942 63900.00000 0 15113503.826 20514362.198 694075.442 10 0 60942 64800.00000 0 15083916.477 20175106.600 3913953.706 10 0 60942 65700.00000 0 14762059.420 19552584.912 7057661.659 10 0 60942 66600.00000 0 14118975.917 18696716.833 10064068.182 10 0 60942 67500.00000 0 13137582.148 17663992.988 12874766.447 10 0 60942 68400.00000 0 11813614.338 16514984.456 15435210.244 10 0 60942 69300.00000 0 10156043.104 15311702.665 17695770.082 10 0 60942 70200.00000 0 8186937.903 14114921.803 19612688.867 10 0 60942 71100.00000 0 5940787.610 12981576.720 21148919.302 10 0 60942 72000.00000 0 3463306.068 11962345.436 22274827.897 10 0 60942 72900.00000 0 809772.649 11099516.893 22968753.366 10 0 60942 73800.00000 0 -1957023.130 10425232.073 23217410.152 10 0 60942 74700.00000 0 -4769147.885 9960170.641 23016130.757 10 0 60942 75600.00000 0 -7556104.107 9712736.362 22368943.562 10 0 60942 76500.00000 0 -10247517.600 9678773.822 21288485.671 10 0 60942 77400.00000 0 -12775822.684 9841826.925 19795753.080 10 0 60942 78300.00000 0 -15078835.553 10173927.371 17919693.262 10 0 60942 79200.00000 0 -17102110.908 10636879.517 15696647.809 10 0 60942 80100.00000 0 -18800985.730 11183987.682 13169655.337 10 0 60942 81000.00000 0 -20142226.840 11762153.686 10387627.315 10 0 60942 81900.00000 0 -21105214.961 12314257.102 7404411.667 10 0 60942 82800.00000 0 -21682616.813 12781718.829 4277761.243 10 0 60942 83700.00000 0 -21880517.746 13107140.813 1068226.044 10 0 60942 84600.00000 0 -21718009.533 13236911.192 -2162010.283 10 0 60942 85500.00000 0 -21226250.426 13123665.324 -5350327.819 10 0 60943 0.00000 0 -20447036.632 12728498.722 -8434878.701 10 0 60943 900.00000 0 -19430944.130 12022837.691 -11355784.892 10 0 60943 1800.00000 0 -18235119.472 10989888.232 -14056298.126 10 0 60943 2700.00000 0 -16920810.429 9625599.866 -16483904.983 10 0 60943 3600.00000 0 -15550740.896 7939102.287 -18591351.262 10 0 60943 4500.00000 0 -14186439.779 5952594.052 -20337567.087 10 0 60943 5400.00000 0 -12885636.150 3700685.598 -21688474.101 10 0 60943 6300.00000 0 -11699830.333 1229221.684 -22617658.517 10 0 60943 7200.00000 0 -10672143.349 -1406369.676 -23106896.372 10 0 60943 8100.00000 0 -9835535.629 -4143134.764 -23146520.046 10 0 60943 9000.00000 0 -9211470.446 -6912973.894 -22735618.197 10 0 60943 9900.00000 0 -8809078.932 -9645245.116 -21882064.362 10 0 60943 10800.00000 0 -8624862.343 -12269483.980 -20602372.870 10 0 60943 11700.00000 0 -8642944.536 -14718126.165 -18921384.077 10 0 60943 12600.00000 0 -8835864.201 -16929119.186 -16871784.375 10 0 60943 13500.00000 0 -9165873.325 -18848313.780 -14493469.901 10 0 60943 14400.00000 0 -9586686.623 -20431534.572 -11832766.106 10 0 60943 15300.00000 0 -10045607.186 -21646242.941 -8941518.574 10 0 60943 16200.00000 0 -10485937.311 -22472722.270 -5876073.320 10 0 60943 17100.00000 0 -10849571.107 -22904736.051 -2696167.260 10 0 60943 18000.00000 0 -11079657.542 -22949631.812 536248.333 10 0 60943 18900.00000 0 -11123219.578 -22627887.567 3758227.134 10 0 60943 19800.00000 0 -10933617.078 -21972121.388 6907064.711 10 0 60943 20700.00000 0 -10472748.000 -21025607.550 9921527.669 10 0 60943 21600.00000 0 -9712893.938 -19840363.663 12743050.009 10 0 60943 22500.00000 0 -8638131.544 -18474891.183 15316872.760 10 0 60943 23400.00000 0 -7245250.115 -16991665.970 17593104.421 10 0 60943 24300.00000 0 -5544136.877 -15454485.600 19527681.885 10 0 60943 25200.00000 0 -3557614.005 -13925785.458 21083213.928 10 0 60943 26100.00000 0 -1320734.557 -12464036.226 22229691.964 10 0 60943 27000.00000 0 1120433.046 -11121331.225 22945055.757 10 0 60943 27900.00000 0 3710481.301 -9941263.417 23215604.636 10 0 60943 28800.00000 0 6386731.175 -8957179.324 23036247.793 10 0 60943 29700.00000 0 9081605.637 -8190880.985 22410590.171 10 0 60943 30600.00000 0 11725211.684 -7651828.301 21350853.326 10 0 60943 31500.00000 0 14248025.009 -7336873.361 19877633.466 10 0 60943 32400.00000 0 16583567.534 -7230536.321 18019501.574 10 0 60943 33300.00000 0 18670968.348 -7305810.232 15812453.157 10 0 60943 34200.00000 0 20457303.349 -7525460.446 13299217.710 10 0 60943 35100.00000 0 21899617.828 -7843763.887 10528440.410 10 0 60943 36000.00000 0 22966549.054 -8208615.365 7553750.841 10 0 60943 36900.00000 0 23639482.107 -8563912.774 4432735.692 10 0 60943 37800.00000 0 23913191.244 -8852121.364 1225834.282 10 0 60943 38700.00000 0 23795940.118 -9016909.519 -2004822.672 10 0 60943 39600.00000 0 23309036.430 -9005745.253 -5196609.239 10 0 60943 40500.00000 0 22485859.224 -8772343.854 -8287612.791 10 0 60943 41400.00000 0 21370398.900 -8278863.000 -11217831.741 10 0 60943 42300.00000 0 20015370.469 -7497751.855 -13930339.376 10 0 60943 43200.00000 0 18479978.478 -6413174.817 -16372391.118 10 0 60943 44100.00000 0 16827426.733 -5021948.147 -18496453.573 10 0 60943 45000.00000 0 15122276.875 -3333947.931 -20261134.982 10 0 60943 45900.00000 0 13427766.311 -1371969.842 -21631998.621 10 0 60943 46800.00000 0 11803197.933 828955.891 -22582242.828 10 0 60943 47700.00000 0 10301511.240 3222767.993 -23093233.797 10 0 60943 48600.00000 0 8967137.000 5754047.960 -23154880.124 10 0 60943 49500.00000 0 7834225.829 8360096.109 -22765841.047 10 0 60943 50400.00000 0 6925325.452 10973324.518 -21933563.497 10 0 60943 51300.00000 0 6250562.560 13523867.896 -20674146.428 10 0 60943 52200.00000 0 5807363.871 15942303.831 -19012034.247 10 0 60943 53100.00000 0 5580728.191 18162368.797 -16979544.682 10 0 60943 54000.00000 0 5544037.753 20123556.056 -14616239.777 10 0 60943 54900.00000 0 5660374.042 21773486.279 -11968152.085 10 0 60943 55800.00000 0 5884281.654 23069950.956 -9086881.289 10 0 60943 56700.00000 0 6163904.375 23982542.501 -6028579.341 10 0 60943 57600.00000 0 6443401.620 24493802.387 -2852844.744 10 0 60943 58500.00000 0 6665541.221 24599839.254 378451.315 10 0 60943 59400.00000 0 6774357.039 24310391.611 3602382.770 10 0 60943 60300.00000 0 6717757.179 23648333.553 6756205.329 10 0 60943 61200.00000 0 6449970.925 22648645.717 9778586.543 10 0 60943 62100.00000 0 5933729.748 21356896.472 12610804.283 10 0 60943 63000.00000 0 5142089.435 19827298.938 15197889.602 10 0 60943 63900.00000 0 4059816.056 18120427.176 17489691.480 10 0 60943 64800.00000 0 2684277.329 16300688.724 19441842.974 10 0 60943 65700.00000 0 1025802.087 14433660.337 21016610.759 10 0 60943 66600.00000 0 -892506.958 12583398.832 22183612.625 10 0 60943 67500.00000 0 -3035499.020 10809839.160 22920390.458 10 0 60943 68400.00000 0 -5357209.208 9166387.486 23212829.129 10 0 60943 69300.00000 0 -7802549.337 7697808.318 23055414.719 10 0 60943 70200.00000 0 -10309385.665 6438491.988 22451328.436 10 0 60943 71100.00000 0 -12810918.011 5411172.718 21412375.489 10 0 60943 72000.00000 0 -15238262.519 4626148.721 19958750.971 10 0 60943 72900.00000 0 -17523132.211 4081035.008 18118647.555 10 0 60943 73800.00000 0 -19600505.513 3761057.660 15927712.387 10 0 60943 74700.00000 0 -21411173.379 3639876.113 13428363.183 10 0 60943 75600.00000 0 -22904060.515 3680898.331 10668975.894 10 0 60943 76500.00000 0 -24038225.238 3839033.413 7702958.635 10 0 60943 77400.00000 0 -24784455.436 4062808.129 4587728.739 10 0 60943 78300.00000 0 -25126394.528 4296758.641 1383611.649 10 0 60943 79200.00000 0 -25061150.405 4483997.110 -1847317.972 10 0 60943 80100.00000 0 -24599361.609 4568845.307 -5042431.188 10 0 60943 81000.00000 0 -23764717.353 4499424.257 -8139753.202 10 0 60943 81900.00000 0 -22592950.669 4230090.431 -11079162.152 10 0 60943 82800.00000 0 -21130345.917 3723615.056 -13803555.096 10 0 60943 83700.00000 0 -19431822.258 2953013.561 -16259958.565 10 0 60943 84600.00000 0 -17558672.486 1902946.497 -18400561.907 10 0 60943 85500.00000 0 -15576051.226 570631.076 -20183653.023 10 0 60944 0.00000 0 -13550317.333 -1033777.119 -21574437.813 10 0 60944 900.00000 0 -11546340.318 -2887351.546 -22545727.573 10 0 60944 1800.00000 0 -9624886.165 -4955104.463 -23078478.593 10 0 60944 2700.00000 0 -7840188.408 -7191214.438 -23162175.257 10 0 60944 3600.00000 0 -6237809.025 -9540720.211 -22795046.503 10 0 60944 4500.00000 0 -4852877.950 -11941612.500 -21984111.364 10 0 60944 5400.00000 0 -3708785.379 -14327237.362 -20745051.777 10 0 60944 6300.00000 0 -2816381.856 -16628911.325 -19101914.299 10 0 60944 7200.00000 0 -2173719.710 -18778639.079 -17086645.872 10 0 60944 8100.00000 0 -1766346.388 -20711819.790 -14738472.203 10 0 60944 9000.00000 0 -1568136.702 -22369828.142 -12103130.642 10 0 60944 9900.00000 0 -1542627.958 -23702361.188 -9231972.660 10 0 60944 10800.00000 0 -1644800.245 -24669451.788 -6180953.890 10 0 60944 11700.00000 0 -1823225.064 -25243063.526 -3009532.243 10 0 60944 12600.00000 0 -2022489.568 -25408199.767 220503.266 10 0 60944 13500.00000 0 -2185791.884 -25163480.347 3446248.836 10 0 60944 14400.00000 0 -2257595.764 -24521162.219 6604922.260 10 0 60944 15300.00000 0 -2186230.491 -23506604.187 9635093.938 10 0 60944 16200.00000 0 -1926324.630 -22157199.575 12477887.467 10 0 60944 17100.00000 0 -1440969.748 -20520823.247 15078125.729 10 0 60944 18000.00000 0 -703522.114 -18653859.718 17385399.900 10 0 60944 18900.00000 0 301033.746 -16618896.448 19355040.789 10 0 60944 19800.00000 0 1575216.924 -14482179.937 20948974.374 10 0 60944 20700.00000 0 3108713.615 -12310941.515 22136446.003 10 0 60944 21600.00000 0 4878585.921 -10170704.487 22894600.612 10 0 60944 22500.00000 0 6850016.989 -8122684.193 23208909.275 10 0 60944 23400.00000 0 8977561.297 -6221388.156 23073435.346 10 0 60944 24300.00000 0 11206848.172 -4512514.505 22490936.427 10 0 60944 25200.00000 0 13476668.201 -3031234.115 21472801.257 10 0 60944 26100.00000 0 15721356.590 -1800925.894 20038823.464 10 0 60944 27000.00000 0 17873375.536 -832415.761 18216816.827 10 0 60944 27900.00000 0 19865989.583 -123749.151 16042079.315 10 0 60944 28800.00000 0 21635924.046 339494.963 13556715.786 10 0 60944 29700.00000 0 23125897.175 583362.832 10808831.602 10 0 60944 30600.00000 0 24286921.712 644193.358 7851611.743 10 0 60944 31500.00000 0 25080280.634 566850.388 4742302.181 10 0 60944 32400.00000 0 25479095.075 402594.108 1541112.168 10 0 60944 33300.00000 0 25469418.922 206680.864 -1689942.284 10 0 60944 34200.00000 0 25050813.941 35792.239 -4888232.042 10 0 60944 35100.00000 0 24236380.643 -54598.391 -7991723.072 10 0 60944 36000.00000 0 23052242.632 -12810.724 -10940176.172 10 0 60944 36900.00000 0 21536504.826 206615.660 -13676315.047 10 0 60944 37800.00000 0 19737728.006 640755.634 -16146940.050 10 0 60944 38700.00000 0 17712982.310 1316486.571 -18303965.791 10 0 60944 39600.00000 0 15525560.102 2249107.998 -20105362.123 10 0 60944 40500.00000 0 13242443.010 3441452.919 -21515979.828 10 0 60944 41400.00000 0 10931628.363 4883530.376 -22508244.440 10 0 60944 42300.00000 0 8659426.406 6552716.539 -23062704.110 10 0 60944 43200.00000 0 6487841.052 8414488.603 -23168420.169 10 0 60944 44100.00000 0 4472143.610 10423672.841 -22823192.014 10 0 60944 45000.00000 0 2658741.063 12526156.318 -22033611.131 10 0 60944 45900.00000 0 1083428.218 14660991.967 -20814942.330 10 0 60944 46800.00000 0 -229903.041 16762809.773 -19190833.735 10 0 60944 47700.00000 0 -1270043.290 18764433.459 -17192860.451 10 0 60944 48600.00000 0 -2038701.498 20599592.899 -14859910.340 10 0 60944 49500.00000 0 -2550188.030 22205618.033 -12237423.616 10 0 60944 50400.00000 0 -2830558.998 23526000.413 -9376501.210 10 0 60944 51300.00000 0 -2916259.336 24512713.879 -6332899.769 10 0 60944 52200.00000 0 -2852323.530 25128195.955 -3165933.665 10 0 60944 53100.00000 0 -2690211.906 25346905.938 62693.420 10 0 60944 54000.00000 0 -2485376.047 25156393.806 3290103.236 10 0 60944 54900.00000 0 -2294658.386 24557835.041 6453478.986 10 0 60944 55800.00000 0 -2173637.920 23566009.405 9491297.198 10 0 60944 56700.00000 0 -2174035.997 22208725.514 12344530.343 10 0 60944 57600.00000 0 -2341293.048 20525716.555 14957796.107 10 0 60944 58500.00000 0 -2712419.463 18567054.917 17280430.587 10 0 60944 59400.00000 0 -3314211.568 16391153.407 19267464.791 10 0 60944 60300.00000 0 -4161907.832 14062437.815 20880486.146 10 0 60944 61200.00000 0 -5258341.442 11648788.682 22088369.349 10 0 60944 62100.00000 0 -6593624.341 9218859.179 22867863.799 10 0 60944 63000.00000 0 -8145375.489 6839380.351 23204027.762 10 0 60944 63900.00000 0 -9879483.464 4572564.858 23090502.390 10 0 60944 64800.00000 0 -11751371.463 2473715.662 22529621.687 10 0 60944 65700.00000 0 -13707712.216 589137.086 21532357.397 10 0 60944 66600.00000 0 -15688521.917 -1045567.021 20118100.598 10 0 60944 67500.00000 0 -17629546.848 -2406739.466 18314284.536 10 0 60944 68400.00000 0 -19464844.475 -3483410.456 16155855.858 10 0 60944 69300.00000 0 -21129452.696 -4277503.847 13684603.965 10 0 60944 70200.00000 0 -22562037.261 -4803501.727 10948360.664 10 0 60944 71100.00000 0 -23707408.028 -5087582.418 8000084.561 10 0 60944 72000.00000 0 -24518799.833 -5166268.563 4896846.871 10 0 60944 72900.00000 0 -24959823.119 -5084642.291 1698737.187 10 0 60944 73800.00000 0 -25006002.818 -4894202.393 -1532290.584 10 0 60944 74700.00000 0 -24645840.693 -4650453.508 -4733610.492 10 0 60944 75600.00000 0 -23881355.871 -4410328.652 -7843132.524 10 0 60944 76500.00000 0 -22728079.822 -4229553.686 -10800503.235 10 0 60944 77400.00000 0 -21214504.659 -4160065.006 -13548275.860 10 0 60944 78300.00000 0 -19381006.347 -4247589.854 -16033027.190 10 0 60944 79200.00000 0 -17278286.432 -4529492.122 -18206399.361 10 0 60944 80100.00000 0 -14965396.019 -5032975.677 -20026046.003 10 0 60944 81000.00000 0 -12507423.415 -5773722.445 -21456463.968 10 0 60944 81900.00000 0 -9972940.982 -6755024.455 -22469693.986 10 0 60944 82800.00000 0 -7431317.080 -7967448.364 -23045876.009 10 0 60944 83700.00000 0 -4950004.852 -9389048.696 -23173647.772 10 0 60944 84600.00000 0 -2591920.698 -10986122.885 -22850378.035 10 0 60944 85500.00000 0 -413021.905 -12714478.239 -22082229.131 10 0 60945 0.00000 0 1539815.225 -14521159.037 -20884046.867 10 0 60945 900.00000 0 3230528.958 -16346563.299 -19279078.392 10 0 60945 1800.00000 0 4635142.318 -18126858.560 -17298524.515 10 0 60945 2700.00000 0 5742520.336 -19796598.501 -14980932.557 10 0 60945 3600.00000 0 6554580.391 -21291427.725 -12371442.814 10 0 60945 4500.00000 0 7085948.688 -22550761.169 -9520902.895 10 0 60945 5400.00000 0 7363078.355 -23520324.280 -6484867.708 10 0 60945 6300.00000 0 7422867.888 -24154446.003 -3322505.419 10 0 60945 7200.00000 0 7310840.126 -24418007.020 -95431.833 10 0 60945 8100.00000 0 7078960.777 -24287960.474 3133502.743 10 0 60945 9000.00000 0 6783190.883 -23754360.776 6301449.153 10 0 60945 9900.00000 0 6480878.799 -22820857.249 9346792.090 10 0 60945 10800.00000 0 6228103.827 -21504632.321 12210354.757 10 0 60945 11700.00000 0 6077085.244 -19835787.709 14836551.266 10 0 60945 12600.00000 0 6073767.178 -17856205.419 17174464.043 10 0 60945 13500.00000 0 6255681.724 -15617932.433 19178825.442 10 0 60945 14400.00000 0 6650180.380 -13181157.614 20810885.205 10 0 60945 15300.00000 0 7273107.861 -10611866.107 22039147.968 10 0 60945 16200.00000 0 8127973.389 -7979269.231 22839967.882 10 0 60945 17100.00000 0 9205653.509 -5353116.630 23197990.409 10 0 60945 18000.00000 0 10484638.238 -2801001.652 23106434.245 10 0 60945 18900.00000 0 11931809.801 -385770.518 22567209.308 10 0 60945 19800.00000 0 13503721.301 1836858.887 21590869.658 10 0 60945 20700.00000 0 15148322.142 3820371.809 20196402.971 10 0 60945 21600.00000 0 16807058.800 5529141.010 18410860.968 10 0 60945 22500.00000 0 18417264.162 6939652.931 16268837.834 10 0 60945 23400.00000 0 19914736.785 8041226.529 13811806.241 10 0 60945 24300.00000 0 21236403.547 8836196.512 11087323.003 10 0 60945 25200.00000 0 22322955.504 9339554.605 8148118.740 10 0 60945 26100.00000 0 23121347.625 9578064.674 5051088.097 10 0 60945 27000.00000 0 23587058.337 9588889.263 1856198.996 10 0 60945 27900.00000 0 23686014.417 9417785.301 -1374658.953 10 0 60945 28800.00000 0 23396100.262 9116944.717 -4578865.317 10 0 60945 29700.00000 0 22708187.535 8742570.637 -7694276.509 10 0 60945 30600.00000 0 21626640.881 8352291.058 -10660427.263 10 0 60945 31500.00000 0 20169277.031 8002518.964 -13419702.704 10 0 60945 32400.00000 0 18366777.364 7745870.380 -15918458.305 10 0 60945 33300.00000 0 16261576.681 7628749.686 -18108065.834 10 0 60945 34200.00000 0 13906272.983 7689204.826 -19945864.647 10 0 60945 35100.00000 0 11361623.062 7955143.933 -21395999.451 10 0 60945 36000.00000 0 8694206.223 8442989.926 -22430127.795 10 0 60945 36900.00000 0 5973852.522 9156831.410 -23027982.859 10 0 60945 37800.00000 0 3270941.988 10088107.396 -23177779.979 10 0 60945 38700.00000 0 653686.898 11215840.947 -22876458.170 10 0 60945 39600.00000 0 -1814489.735 12507413.628 -22129751.139 10 0 60945 40500.00000 0 -4077370.218 13919849.686 -20952085.539 10 0 60945 41400.00000 0 -6088051.805 15401557.122 -19366307.615 10 0 60945 42300.00000 0 -7810661.697 16894453.102 -17403242.865 10 0 60945 43200.00000 0 -9221605.713 18336384.537 -15101096.774 10 0 60945 44100.00000 0 -10310298.574 19663741.695 -12504708.014 10 0 60945 45000.00000 0 -11079345.752 20814154.077 -9664668.791 10 0 60945 45900.00000 0 -11544170.210 21729153.970 -6636329.894 10 0 60945 46800.00000 0 -11732101.120 22356694.235 -3478710.665 10 0 60945 47700.00000 0 -11680964.692 22653412.952 -253336.222 10 0 60945 48600.00000 0 -11437238.621 22586548.396 2976974.011 10 0 60945 49500.00000 0 -11053850.271 22135422.863 6149341.526 10 0 60945 50400.00000 0 -10587713.809 21292432.427 9202062.227 10 0 60945 51300.00000 0 -10097112.387 20063501.043 12075813.048 10 0 60945 52200.00000 0 -9639037.633 18467980.309 14714807.468 10 0 60945 53100.00000 0 -9266600.042 16537999.830 17067877.026 10 0 60945 54000.00000 0 -9026620.150 14317296.324 19089458.034 10 0 60945 54900.00000 0 -8957502.210 11859571.285 20740464.922 10 0 60945 55800.00000 0 -9087479.461 9226446.514 21989034.334 10 0 60945 56700.00000 0 -9433304.086 6485103.084 22811126.909 10 0 60945 57600.00000 0 -9999435.880 3705701.867 23190976.643 10 0 60945 58500.00000 0 -10777762.701 958692.240 23121380.649 10 0 60945 59400.00000 0 -11747863.544 -1687880.435 22603825.153 10 0 60945 60300.00000 0 -12877802.660 -4170958.426 21648446.386 10 0 60945 61200.00000 0 -14125421.291 -6434841.069 20273827.922 10 0 60945 62100.00000 0 -15440073.171 -8433243.810 18506638.711 10 0 60945 63000.00000 0 -16764731.810 -10130963.532 16381118.709 10 0 60945 63900.00000 0 -18038382.248 -11505082.932 13938421.610 10 0 60945 64800.00000 0 -19198598.265 -12545665.594 11225826.587 10 0 60945 65700.00000 0 -20184198.175 -13255914.216 8295833.293 10 0 60945 66600.00000 0 -20937868.895 -13651786.361 5205156.593 10 0 60945 67500.00000 0 -21408648.936 -13761084.450 2013639.372 10 0 60945 68400.00000 0 -21554166.471 -13622058.392 -1216896.503 10 0 60945 69300.00000 0 -21342538.389 -13281579.456 -4423839.575 10 0 60945 70200.00000 0 -20753850.020 -12792961.964 -7544996.125 10 0 60945 71100.00000 0 -19781152.309 -12213524.174 -10519792.411 10 0 60945 72000.00000 0 -18430933.142 -11601990.880 -13290448.663 10 0 60945 72900.00000 0 -16723041.254 -11015847.060 -15803102.040 10 0 60945 73800.00000 0 -14690063.945 -10508754.277 -18008856.642 10 0 60945 74700.00000 0 -12376182.615 -10128139.131 -19864739.839 10 0 60945 75600.00000 0 -9835552.018 -9913056.118 -21334545.981 10 0 60945 76500.00000 0 -7130269.128 -9892415.902 -22389550.615 10 0 60945 77400.00000 0 -4328014.893 -10083654.902 -23009080.688 10 0 60945 78300.00000 0 -1499466.006 -10491903.586 -23180929.003 10 0 60945 79200.00000 0 1284416.254 -11109690.013 -22901604.076 10 0 60945 80100.00000 0 3955107.623 -11917192.555 -22176409.668 10 0 60945 81000.00000 0 6449139.626 -12883032.491 -21019351.602 10 0 60945 81900.00000 0 8710506.317 -13965574.179 -19452872.813 10 0 60945 82800.00000 0 10692758.364 -15114678.727 -17507421.067 10 0 60945 83700.00000 0 12360696.853 -16273837.576 -15220857.247 10 0 60945 84600.00000 0 13691595.976 -17382595.840 -12637715.435 10 0 60945 85500.00000 0 14675903.658 -18379162.587 -9808329.314 99